This is the latest recevied weather packets stored in our database for station/object KE4LOJ. If no packets are shown the sender has not sent any weather packets the latest 10 day(s).
| Time | Temp. | Humidity | Pressure | Rain* | Wind** | Luminosity | Snow |
|---|---|---|---|---|---|---|---|
| 1777500500 | 31.67° C | 46% | 1011.7 hPa | 0 mm | - | 233 W/m² | - |
| 1777500195 | 31.67° C | 46% | 1011.6 hPa | 0 mm | - | 252 W/m² | - |
| 1777499892 | 31.67° C | 46% | 1011.6 hPa | 0 mm | - | 186 W/m² | - |
| 1777499589 | 31.67° C | 46% | 1011.8 hPa | 0 mm | - | 203 W/m² | - |
| 1777499286 | 31.67° C | 45% | 1011.8 hPa | 0 mm | - | 307 W/m² | - |
| 1777498984 | 31.67° C | 45% | 1011.8 hPa | 0 mm | - | 317 W/m² | - |
| 1777498679 | 30.56° C | 47% | 1011.8 hPa | 0 mm | - | 342 W/m² | - |
| 1777498376 | 31.67° C | 46% | 1011.8 hPa | 0 mm | - | 78 W/m² | - |
| 1777498074 | 31.67° C | 45% | 1012 hPa | 0 mm | - | 379 W/m² | - |
| 1777497770 | 31.67° C | 44% | 1011.9 hPa | 0 mm | - | 305 W/m² | - |
| 1777497467 | 32.22° C | 44% | 1011.9 hPa | 0 mm | - | 410 W/m² | - |
| 1777497163 | 31.67° C | 45% | 1012 hPa | 0 mm | - | 428 W/m² | - |
| 1777496860 | 32.22° C | 44% | 1012 hPa | 0 mm | - | 449 W/m² | - |
| 1777496557 | 31.67° C | 46% | 1012 hPa | 0 mm | - | 457 W/m² | - |
| 1777496253 | 31.67° C | 45% | 1012.2 hPa | 0 mm | - | 91 W/m² | - |
| 1777495949 | 31.67° C | 46% | 1012.3 hPa | 0 mm | - | 519 W/m² | - |
| 1777495645 | 32.22° C | 45% | 1012.3 hPa | 0 mm | - | 521 W/m² | - |
| 1777495341 | 31.67° C | 45% | 1012.4 hPa | 0 mm | - | 526 W/m² | - |
| 1777495038 | 31.67° C | 46% | 1012.5 hPa | 0 mm | - | 164 W/m² | - |
| 1777494736 | 32.22° C | 45% | 1012.5 hPa | 0 mm | - | 540 W/m² | - |
| 1777494433 | 32.22° C | 44% | 1012.9 hPa | 0 mm | - | 578 W/m² | - |
| 1777494129 | 31.67° C | 47% | 1012.7 hPa | 0 mm | - | 618 W/m² | - |
| 1777493826 | 31.67° C | 47% | 1013 hPa | 0 mm | - | 631 W/m² | - |
| 1777493525 | 31.67° C | 46% | 1013 hPa | 0 mm | - | 658 W/m² | - |
| 1777493221 | 31.67° C | 45% | 1013.1 hPa | 0 mm | - | 679 W/m² | - |
* Rain latest hour (hover to see other rain measurements)
** Current wind speed in m/s (hover to see current wind gust speed)